Showing default

ROCK, 60474

Orbit data source: Space-Track

ROCK, 60474 is an American payload satellite in SSO that was launched on Fri, 16 Aug 2024 UTC via an FALCON 9 launch vehicle from the Air Force Western Test Range (AFWTR). Payload-class satellites include a variety of spacecraft equipped with specific instruments for various scientific and technological missions. These include communications satellites like Starlink; space stations such as the ISS; scientific satellites like the Hubble; Earth observation satellites from companies like Planet Labs, Umbra, and HawkEye 360; GPS; miniature CubeSats for education and research; and military/defense satellites.

Loading next visibility...
Identifier
60474, 2024-149G
Orbit
SSO
Country
Flag of USUS
Related business
Manufacturer
ARRAY
Mission
Operational Commercial Technology
Bus & Motor
CUBESAT 1.5U, Unknown motor
Mass
1.83 kg wet, 1.83 kg dry
Launch date (UTC)
2024-08-16 (1 year ago)
Launch vehicle
FALCON 9
Launch site
Air Force Western Test Range (AFWTR)
Object type
Payload
Rocket body
Debris
Shape & HBR
Box, 0.1 m
Radar Cross Section
0.015 m², Small (<0.1 m²)

Expand to show TLE details & history
Last TLE update: 23 hours ago

TLE from 23 hours ago
0 ROCK
1 60474U 24149G   26034.18961045  .00018498  00000-0  53965-3 0  9991
2 60474  97.3882 116.9024 0002198  41.8615 318.2796 15.35395522 81676
Epoch: 2026-02-03T04:33Z
TLE epoch observation values (Epoch: 2026-02-03T04:33:02.342Z)
Latitude
-0.00008°
Longitude
-84.73146°
Altitude
461.736 km
Speed
7.636 km/s
True Right ascension
07h 47m 36s
True Declination
0° 00' 00"
Sunlit
Object was in full shadow at epoch
Visualization orbit readout
Latitude
Unknown
Longitude
Unknown
Altitude
Unknown
Speed
Unknown
Apparent Right ascension
Unknown
Apparent Declination
Unknown
Sunlit
N/A
Visualization observer readout
Local Sidereal Time
05:01:02
Azimuth
Unknown
Elevation
Unknown
Doppler factor
Unknown
Orbital elements
Apogee altitude
458.193 km
Perigee altitude
455.188 km
Semi-major axis
6,834.828 km
Eccentricity
0.00022
Inclination
97.3882°
RAAN
116.9024°
Arg. of periapsis
41.8615°
True anomaly
318.26283°
Mean anomaly
318.2796°
Eccentric anomaly
318.27122°
Mean motion
3.84107 °/min
Orbital period
93.72 mins
BSTAR
0.00053965
Loading maneuver chart data...
Computing Atmospheric mass density...
Loading historical data...
Loading historical data...
Loading historical data...
Loading historical data...
Loading historical data...
Loading historical data...
Loading historical data...

Documentation

Showing up to 5 results
|